Flag for Spain Weather past 2 weeks in Murcia, Spain

Now
72 °F

Clear.


Feels Like: 75 °F
Forecast: 55 / 84 °F
Wind: 3 mph from West

Location: Murcia / San Javier

Current Time: Sep 24, 2014 at 1:30:02 AM

Latest Report: Sep 23, 2014 at 11:00 PM


Visibility: 10 mi

Pressure: 29.92 "Hg

Humidity: 69%

Dew point: 61 °F

Location of MurciaLocation

Historic Weather in Murcia — Graph

°F

Murcia temperature yesterday

Maximum temperature yesterday: 82 °F (at 1:00 PM)
Minimum temperature yesterday: 63 °F (at 7:00 AM)
Average temperature yesterday: 76 °F

Past Weeks' High & Low Weather Summary

 TemperatureHumidityPressure
High93 °F (Sep 11, 4:00 PM)94% (Sep 17, 7:00 AM)30.07 "Hg (Sep 17, 7:00 AM)
Low63 °F (Sep 23, 7:00 AM)24% (Sep 12, 1:00 PM)29.71 "Hg (Sep 17, 5:00 PM)
Average80 °F62%29.90 "Hg
* Reported Sep 8 11:00 PM — Sep 23 11:00 PM, Murcia, Weather by CustomWeather, © 2014

Note: Actual official high and low records may vary slightly from our data, if they occured in-between our weather recording intervals... More about our weather records

Advertising

Murcia weather history for previous 24 hours

 ConditionsComfort  
Time TempWeatherWind HumidityBarometerVisibility
11:00 PM
Sep 23
72 °FClear.3 mph69%29.92 "Hg10 mi
10:00 PM75 °FPassing clouds.7 mph65%29.92 "HgN/A
9:00 PM75 °FPassing clouds.7 mph57%29.92 "HgN/A
8:00 PM77 °FPassing clouds.8 mph54%29.89 "HgN/A
7:00 PM79 °FPassing clouds.12 mph51%29.89 "HgN/A
6:00 PM81 °FPassing clouds.12 mph51%29.86 "HgN/A
5:00 PM81 °FPassing clouds.12 mph54%29.89 "HgN/A
4:00 PM81 °FPassing clouds.10 mph58%29.89 "HgN/A
3:00 PM82 °FPassing clouds.9 mph45%29.92 "HgN/A
2:00 PM82 °FPassing clouds.7 mph42%29.92 "HgN/A
1:00 PM82 °FPassing clouds.1 mph40%29.95 "HgN/A
12:00 PM79 °FPassing clouds.3 mph45%29.95 "HgN/A
11:00 AM77 °FPassing clouds.3 mph51%29.95 "HgN/A
10:00 AM73 °FPassing clouds.5 mph61%29.95 "HgN/A
9:00 AM68 °FPassing clouds.5 mph73%29.95 "HgN/A
8:00 AM64 °FPassing clouds.6 mph83%29.92 "HgN/A
7:00 AM63 °FPassing clouds.1 mph88%29.92 "HgN/A
Weather by CustomWeather, © 2014

See weather overviewHow to use our weather pages